Weather History for Point Petre, ON

Change the Weather History Date:

Wednesday, October 3, 2012

  Actual Average Record
Temperature  
Mean Temperature 62 °F -  
Max Temperature 65 °F - - ()
Min Temperature 60 °F - - ()
Degree Days  
Heating Degree Days 2    
Growing Degree Days 12 (Base 50)    
Moisture  
Dew Point 61 °F    
Average Humidity 90    
Maximum Humidity 94    
Minimum Humidity 81    
Precipitation  
Precipitation 0.00 in - - ()
Sea Level Pressure  
Sea Level Pressure 30.03 in    
Wind  
Wind Speed 8 mph ()    
Max Wind Speed 12 mph    
Max Gust Speed -    
T = Trace of Precipitation, MM = Missing Value Source: Averaged Metar Reports

Daily Weather History Graph

Daily Weather History Graph

Search for Another Location

Airport:

Trip Planner

Search our weather history database for the weather conditions in past years. The results will help you decide how hot, cold, wet, or windy it might be!

Date:

Astronomy

Oct. 03, 2012 Rise Set
Actual Time 7:09 AM EDT 6:45 PM EDT
Civil Twilight 6:40 AM EDT 7:13 PM EDT
Nautical Twilight 6:07 AM EDT 7:47 PM EDT
Astronomical Twilight 5:33 AM EDT 8:20 PM EDT
Moon 8:27 PM EDT (10/3) 10:38 AM EDT (10/3)
Length of Visible Light 12h 33m
Length of Day
11h 35m
Waning Gibbous, 89% of the Moon is Illuminated
Oct 3
Waning Gibbous
Oct 8
Last Quarter
Oct 15
New
Oct 21
First Quarter
Oct 29
Full

Hourly Weather History & Observations

Time (EDT) Temp. Dew Point Humidity Pressure Visibility Wind Dir Wind Speed Gust Speed Precip Events Conditions
12:00 AM 62.4 °F 59.4 °F 90% 29.98 in - East 11.5 mph - N/A   Unknown
1:00 AM 62.8 °F 59.9 °F 90% 29.96 in - East 10.4 mph - N/A   Unknown
2:00 AM 63 °F 60 °F 87% 29.96 in - East 11.5 mph - -  
2:00 AM 62.6 °F 60.1 °F 91% 29.96 in - East 11.5 mph - N/A   Unknown
3:00 AM 62.6 °F 60.6 °F 93% 29.96 in - East 9.2 mph - N/A   Unknown
4:00 AM 63.0 °F 60.4 °F 91% 29.96 in - East 10.4 mph - N/A   Unknown
5:00 AM 63 °F 60 °F 88% 29.98 in - East 10.4 mph - -  
5:00 AM 63.0 °F 60.3 °F 91% 29.98 in - East 10.4 mph - N/A   Unknown
6:00 AM 62.2 °F 60.1 °F 93% 29.99 in - ENE 8.1 mph - N/A   Unknown
7:00 AM 61.9 °F 59.9 °F 93% 30.01 in - NE 8.1 mph - N/A   Unknown
8:00 AM 62 °F 59 °F 88% 30.01 in - ENE 9.2 mph - -  
8:00 AM 61.5 °F 59.4 °F 93% 30.01 in - ENE 9.2 mph - N/A   Unknown
9:00 AM 63.0 °F 59.5 °F 89% 30.02 in - ENE 10.4 mph - N/A   Unknown
10:00 AM 63.1 °F 60.1 °F 90% 30.03 in - East 10.4 mph - N/A   Unknown
11:00 AM 64 °F 61 °F 86% 30.04 in - East 10.4 mph - -  
11:00 AM 63.9 °F 60.8 °F 90% 30.04 in - East 10.4 mph - N/A   Unknown
12:00 PM 64.0 °F 60.4 °F 88% 30.03 in - East 9.2 mph - N/A   Unknown
1:00 PM 64.6 °F 60.4 °F 86% 30.03 in - East 6.9 mph - N/A   Unknown
2:00 PM 65 °F 61 °F 81% 30.03 in - East 3.5 mph - -  
2:00 PM 64.8 °F 60.6 °F 86% 30.03 in - East 3.5 mph - N/A   Unknown
3:00 PM 64.2 °F 60.6 °F 88% 30.03 in - East 4.6 mph - N/A   Unknown
4:00 PM 64.8 °F 61.3 °F 89% 30.04 in - East 2.3 mph - N/A   Unknown
5:00 PM 65 °F 62 °F 85% 30.05 in - ESE 4.6 mph - -  
5:00 PM 64.6 °F 61.5 °F 90% 30.05 in - ESE 4.6 mph - N/A   Unknown
6:00 PM 64.2 °F 61.5 °F 91% 30.06 in - ESE 4.6 mph - N/A   Unknown
7:00 PM 64.0 °F 61.7 °F 92% 30.07 in - SE 4.6 mph - N/A   Unknown
8:00 PM 64 °F 62 °F 91% 30.08 in - SSE 3.5 mph - -  
8:00 PM 64.0 °F 62.1 °F 93% 30.08 in - SSE 3.5 mph - N/A   Unknown
9:00 PM 63.1 °F 61.3 °F 94% 30.08 in - East 3.5 mph - N/A   Unknown
10:00 PM 63.0 °F 61.3 °F 94% 30.10 in - SSE 3.5 mph - N/A   Unknown
11:00 PM 62 °F 60 °F 92% 30.10 in - SE 3.5 mph - -  
11:00 PM 61.9 °F 60.3 °F 94% 30.10 in - SSE 3.5 mph - N/A   Unknown